When you browse on this site, cookies collect data to enhance your experience and personalize the content and advertising you see.
Visit our Privacy Policy to learn more. By continuing to use the site, you agree to this use of cookies and data.
  • In Czech Republic
  • List of Countries
  • For 7 days
  • Water Temperature
  • Satellite Maps
  • Weather Map
  • Weather Widgets
  • user-avatar
    Login

    Hourly Weather Baena

    Today, 17 January, Thursday

    Time Temperature Precipitation Wind Pressure Humidity
    00:00 +7°C° 0 mm 1 mps 726 mmHg 87%
    01:00 +6°C° 0 mm 0 mps 726 mmHg 88%
    02:00 +5°C° 0 mm 0 mps 726 mmHg 88%
    03:00 +5°C° 0 mm 0 mps 725 mmHg 88%
    04:00 +5°C° 0 mm 0 mps 725 mmHg 89%
    05:00 +5°C° 0 mm 0 mps 725 mmHg 89%
    06:00 +5°C° 0 mm 1 mps 725 mmHg 89%
    07:00 +5°C° 0 mm 0 mps 726 mmHg 86%
    08:00 +6°C° 0 mm 0 mps 726 mmHg 84%
    09:00 +7°C° 0 mm 0 mps 726 mmHg 81%
    10:00 +9°C° 0 mm 1 mps 726 mmHg 77%
    11:00 +10°C° 0 mm 1 mps 726 mmHg 72%
    12:00 +11°C° 0 mm 1 mps 726 mmHg 68%
    13:00 +11°C° 0 mm 1 mps 726 mmHg 66%
    14:00 +12°C° 0 mm 1 mps 725 mmHg 63%
    15:00 +12°C° 0 mm 1 mps 725 mmHg 61%
    16:00 +11°C° 0 mm 1 mps 725 mmHg 64%
    17:00 +11°C° 0 mm 1 mps 725 mmHg 67%
    18:00 +10°C° 0 mm 1 mps 725 mmHg 70%
    19:00 +9°C° 0 mm 1 mps 726 mmHg 73%
    20:00 +7°C° 0 mm 0 mps 726 mmHg 76%
    21:00 +7°C° 0 mm 0 mps 726 mmHg 78%
    22:00 +6°C° 0 mm 0 mps 726 mmHg 80%
    23:00 +7°C° 0 mm 1 mps 726 mmHg 81%

    Tomorrow, 18 January, Friday

    Time Temperature Precipitation Wind Pressure Humidity
    00:00 +6°C° 0 mm 1 mps 727 mmHg 83%
    01:00 +6°C° 0 mm 1 mps 727 mmHg 83%
    02:00 +6°C° 0 mm 1 mps 726 mmHg 84%
    03:00 +5°C° 0 mm 1 mps 726 mmHg 85%
    04:00 +5°C° 0 mm 1 mps 726 mmHg 86%
    05:00 +5°C° 0 mm 1 mps 726 mmHg 86%
    06:00 +4°C° 0 mm 1 mps 726 mmHg 87%
    07:00 +4°C° 0 mm 0 mps 727 mmHg 83%
    08:00 +5°C° 0 mm 0 mps 727 mmHg 80%
    09:00 +6°C° 0 mm 0 mps 727 mmHg 76%
    10:00 +8°C° 0 mm 1 mps 727 mmHg 71%
    11:00 +10°C° 0 mm 1 mps 727 mmHg 65%
    12:00 +11°C° 0 mm 1 mps 727 mmHg 60%
    13:00 +11°C° 0 mm 1 mps 727 mmHg 58%
    14:00 +12°C° 0 mm 2 mps 727 mmHg 56%
    15:00 +12°C° 0 mm 2 mps 726 mmHg 54%
    16:00 +10°C° 0 mm 2 mps 726 mmHg 60%
    17:00 +9°C° 0 mm 2 mps 726 mmHg 65%
    18:00 +9°C° 0 mm 1 mps 727 mmHg 71%
    19:00 +8°C° 0 mm 1 mps 727 mmHg 74%
    20:00 +8°C° 0 mm 1 mps 727 mmHg 76%
    21:00 +8°C° 0 mm 1 mps 727 mmHg 78%
    22:00 +7°C° 0 mm 1 mps 727 mmHg 80%
    23:00 +7°C° 0 mm 1 mps 727 mmHg 81%

    Day after tomorrow, 19 January, Saturday

    Time Temperature Precipitation Wind Pressure Humidity
    00:00 +7°C° 0 mm 1 mps 728 mmHg 82%
    01:00 +7°C° 0 mm 1 mps 727 mmHg 84%
    02:00 +6°C° 0 mm 1 mps 727 mmHg 86%
    03:00 +6°C° 0 mm 1 mps 727 mmHg 88%
    04:00 +6°C° 0 mm 1 mps 727 mmHg 87%
    05:00 +6°C° 0 mm 1 mps 727 mmHg 87%
    06:00 +5°C° 0 mm 2 mps 727 mmHg 87%
    07:00 +6°C° 0.3 mm 2 mps 727 mmHg 85%
    08:00 +6°C° 0.3 mm 2 mps 727 mmHg 84%
    09:00 +6°C° 0.3 mm 2 mps 727 mmHg 82%
    10:00 +6°C° 0.7 mm 2 mps 727 mmHg 83%
    11:00 +7°C° 0.7 mm 2 mps 727 mmHg 85%
    12:00 +7°C° 0.7 mm 2 mps 726 mmHg 86%
    13:00 +8°C° 0.3 mm 2 mps 726 mmHg 87%
    14:00 +8°C° 0.3 mm 2 mps 725 mmHg 88%
    15:00 +9°C° 0.3 mm 2 mps 725 mmHg 90%
    16:00 +9°C° 1.1 mm 3 mps 725 mmHg 92%
    17:00 +10°C° 1.1 mm 4 mps 724 mmHg 94%
    18:00 +10°C° 1.1 mm 4 mps 724 mmHg 96%
    19:00 +9°C° 1.1 mm 5 mps 724 mmHg 96%
    20:00 +9°C° 1.1 mm 6 mps 724 mmHg 95%
    21:00 +9°C° 1.1 mm 7 mps 724 mmHg 95%
    22:00 +9°C° 2.2 mm 7 mps 724 mmHg 96%
    23:00 +9°C° 2.2 mm 6 mps 724 mmHg 96%

    20 January, Sunday

    Time Temperature Precipitation Wind Pressure Humidity
    00:00 +9°C° 2.2 mm 6 mps 724 mmHg 97%
    01:00 +9°C° 0.8 mm 5 mps 723 mmHg 97%
    02:00 +10°C° 0.8 mm 4 mps 723 mmHg 97%
    03:00 +9°C° 0.8 mm 2 mps 722 mmHg 98%
    04:00 +9°C° 0.9 mm 2 mps 722 mmHg 98%
    05:00 +9°C° 0.9 mm 2 mps 722 mmHg 98%
    06:00 +10°C° 0.9 mm 1 mps 722 mmHg 98%
    07:00 +9°C° 0.5 mm 2 mps 722 mmHg 96%
    08:00 +10°C° 0.5 mm 2 mps 723 mmHg 95%
    09:00 +10°C° 0.5 mm 2 mps 723 mmHg 93%
    10:00 +10°C° 0.3 mm 2 mps 723 mmHg 90%
    11:00 +10°C° 0.3 mm 2 mps 724 mmHg 87%
    12:00 +12°C° 0.3 mm 2 mps 724 mmHg 84%
    13:00 +12°C° 0.3 mm 2 mps 724 mmHg 83%
    14:00 +11°C° 0.3 mm 3 mps 724 mmHg 82%
    15:00 +11°C° 0.3 mm 3 mps 724 mmHg 80%
    16:00 +10°C° 0 mm 3 mps 724 mmHg 79%
    17:00 +9°C° 0 mm 3 mps 725 mmHg 77%
    18:00 +8°C° 0 mm 2 mps 726 mmHg 76%
    19:00 +8°C° 0 mm 2 mps 726 mmHg 75%
    20:00 +7°C° 0 mm 2 mps 727 mmHg 75%
    21:00 +6°C° 0 mm 2 mps 728 mmHg 74%
    22:00 +6°C° 0 mm 2 mps 728 mmHg 75%
    23:00 +5°C° 0 mm 2 mps 728 mmHg 76%

    21 January, Monday

    Time Temperature Precipitation Wind Pressure Humidity
    00:00 +5°C° 0 mm 2 mps 729 mmHg 77%
    01:00 +5°C° 0 mm 2 mps 729 mmHg 78%
    02:00 +4°C° 0 mm 2 mps 729 mmHg 79%
    03:00 +4°C° 0 mm 2 mps 729 mmHg 80%
    04:00 +4°C° 0 mm 2 mps 729 mmHg 81%
    05:00 +3°C° 0 mm 2 mps 729 mmHg 82%
    06:00 +3°C° 0 mm 2 mps 730 mmHg 83%
    07:00 +4°C° 0 mm 2 mps 730 mmHg 82%
    08:00 +5°C° 0 mm 2 mps 731 mmHg 80%
    09:00 +5°C° 0 mm 2 mps 731 mmHg 78%
    10:00 +7°C° 0 mm 2 mps 731 mmHg 71%
    11:00 +9°C° 0 mm 3 mps 731 mmHg 64%
    12:00 +10°C° 0 mm 4 mps 731 mmHg 57%
    13:00 +11°C° 0 mm 3 mps 731 mmHg 55%
    14:00 +11°C° 0 mm 3 mps 730 mmHg 53%
    15:00 +11°C° 0 mm 3 mps 730 mmHg 50%
    16:00 +10°C° 0 mm 2 mps 730 mmHg 55%
    17:00 +9°C° 0 mm 1 mps 730 mmHg 59%
    18:00 +7°C° 0 mm 0 mps 730 mmHg 64%
    19:00 +7°C° 0 mm 0 mps 730 mmHg 65%
    20:00 +6°C° 0 mm 0 mps 731 mmHg 67%
    21:00 +6°C° 0 mm 0 mps 731 mmHg 69%
    22:00 +5°C° 0 mm 0 mps 731 mmHg 70%
    23:00 +6°C° 0 mm 1 mps 731 mmHg 72%

    22 January, Tuesday

    Time Temperature Precipitation Wind Pressure Humidity
    00:00 +6°C° 0 mm 1 mps 731 mmHg 73%
    01:00 +5°C° 0 mm 1 mps 730 mmHg 74%
    02:00 +5°C° 0 mm 1 mps 730 mmHg 75%
    03:00 +5°C° 0 mm 1 mps 729 mmHg 76%
    04:00 +5°C° 0 mm 1 mps 729 mmHg 76%
    05:00 +5°C° 0 mm 1 mps 729 mmHg 77%
    06:00 +4°C° 0 mm 1 mps 728 mmHg 77%
    07:00 +4°C° 0 mm 2 mps 728 mmHg 75%
    08:00 +5°C° 0 mm 2 mps 728 mmHg 74%
    09:00 +6°C° 0 mm 2 mps 728 mmHg 72%
    10:00 +7°C° 0 mm 3 mps 728 mmHg 70%
    11:00 +7°C° 0 mm 4 mps 727 mmHg 67%
    12:00 +8°C° 0 mm 5 mps 726 mmHg 64%
    13:00 +8°C° 0.1 mm 5 mps 725 mmHg 65%
    14:00 +7°C° 0.1 mm 5 mps 724 mmHg 66%
    15:00 +7°C° 0.1 mm 6 mps 723 mmHg 67%
    16:00 +7°C° 0.9 mm 6 mps 723 mmHg 75%
    17:00 +7°C° 0.9 mm 6 mps 722 mmHg 83%
    18:00 +7°C° 0.9 mm 6 mps 722 mmHg 91%
    19:00 +6°C° 0.3 mm 5 mps 722 mmHg 87%
    20:00 +5°C° 0.3 mm 4 mps 722 mmHg 84%
    21:00 +4°C° 0.3 mm 4 mps 723 mmHg 80%
    22:00 +3°C° 0 mm 3 mps 723 mmHg 81%
    23:00 +4°C° 0 mm 2 mps 723 mmHg 82%
    Show more